Time,TemperatureF,DewpointF,PressureIn,WindDirection,WindDirectionDegrees,WindSpeedMPH,WindSpeedGustMPH,Humidity,HourlyPrecipIn,Conditions,Clouds,dailyrainin,SoftwareType,DateUTC
2013-03-21 00:00:00,26.3,17.5,29.55,West,277,4.0,4.0,69,0.00,,,0.00,Wunderground v.1.15,2013-03-21 04:00:00,
2013-03-21 00:11:00,26.2,17.7,29.55,WSW,252,3.0,7.0,70,0.00,,,0.00,Wunderground v.1.15,2013-03-21 04:11:00,
2013-03-21 00:20:00,25.9,17.5,29.55,WSW,254,2.0,2.0,70,0.00,,,0.00,Wunderground v.1.15,2013-03-21 04:20:00,
2013-03-21 00:26:00,25.7,17.6,29.55,SW,215,2.0,7.0,71,0.00,,,0.00,Wunderground v.1.15,2013-03-21 04:26:00,
2013-03-21 00:31:00,25.5,17.4,29.55,SW,215,2.0,7.0,71,0.00,,,0.00,Wunderground v.1.15,2013-03-21 04:31:00,
2013-03-21 00:35:00,25.4,17.6,29.55,SW,234,2.0,7.0,72,0.00,,,0.00,Wunderground v.1.15,2013-03-21 04:35:00,
2013-03-21 00:51:00,25.2,17.8,29.55,WSW,240,3.0,7.0,73,0.00,,,0.00,Wunderground v.1.15,2013-03-21 04:51:00,
2013-03-21 01:11:00,24.7,17.6,29.55,SW,228,3.0,6.0,74,0.00,,,0.00,Wunderground v.1.15,2013-03-21 05:11:00,
2013-03-21 01:21:00,24.6,17.8,29.55,WSW,243,2.0,6.0,75,0.00,,,0.00,Wunderground v.1.15,2013-03-21 05:21:00,
2013-03-21 01:35:00,24.4,17.9,29.55,SW,215,2.0,6.0,76,0.00,,,0.00,Wunderground v.1.15,2013-03-21 05:35:00,
2013-03-21 01:40:00,24.4,17.9,29.55,SW,215,3.0,3.0,76,0.00,,,0.00,Wunderground v.1.15,2013-03-21 05:40:00,
2013-03-21 01:50:00,24.6,18.1,29.54,SW,215,3.0,6.0,76,0.00,,,0.00,Wunderground v.1.15,2013-03-21 05:50:00,
2013-03-21 02:06:00,24.2,18.0,29.54,WSW,238,3.0,7.0,77,0.00,,,0.00,Wunderground v.1.15,2013-03-21 06:06:00,
2013-03-21 02:15:00,24.3,18.1,29.55,WSW,242,4.0,7.0,77,0.00,,,0.00,Wunderground v.1.15,2013-03-21 06:15:00,
2013-03-21 02:20:00,24.4,17.9,29.55,SW,215,4.0,4.0,76,0.00,,,0.00,Wunderground v.1.15,2013-03-21 06:20:00,
2013-03-21 02:30:00,24.1,17.9,29.54,WSW,257,3.0,7.0,77,0.00,,,0.00,Wunderground v.1.15,2013-03-21 06:30:00,
2013-03-21 02:40:00,23.9,17.7,29.55,WSW,241,3.0,3.0,77,0.00,,,0.00,Wunderground v.1.15,2013-03-21 06:40:00,
2013-03-21 02:51:00,23.8,17.6,29.55,WSW,240,3.0,3.0,77,0.00,,,0.00,Wunderground v.1.15,2013-03-21 06:51:00,
2013-03-21 03:00:00,23.6,17.7,29.55,SW,228,3.0,7.0,78,0.00,,,0.00,Wunderground v.1.15,2013-03-21 07:00:00,
2013-03-21 03:11:00,23.4,17.8,29.54,SW,217,3.0,3.0,79,0.00,,,0.00,Wunderground v.1.15,2013-03-21 07:11:00,
2013-03-21 03:20:00,23.1,17.6,29.54,SW,232,4.0,4.0,79,0.00,,,0.00,Wunderground v.1.15,2013-03-21 07:20:00,
2013-03-21 03:26:00,23.0,17.5,29.54,SW,223,4.0,5.0,79,0.00,,,0.00,Wunderground v.1.15,2013-03-21 07:26:00,
2013-03-21 03:36:00,22.7,17.5,29.54,SW,218,3.0,5.0,80,0.00,,,0.00,Wunderground v.1.15,2013-03-21 07:36:00,
2013-03-21 03:56:00,22.7,17.7,29.53,SW,222,3.0,5.0,81,0.00,,,0.00,Wunderground v.1.15,2013-03-21 07:56:00,
2013-03-21 04:06:00,22.7,17.7,29.53,WSW,238,3.0,4.0,81,0.00,,,0.00,Wunderground v.1.15,2013-03-21 08:06:00,
2013-03-21 04:20:00,22.7,18.0,29.53,SW,228,3.0,7.0,82,0.00,,,0.00,Wunderground v.1.15,2013-03-21 08:20:00,
2013-03-21 04:31:00,22.6,17.9,29.53,SW,221,2.0,2.0,82,0.00,,,0.00,Wunderground v.1.15,2013-03-21 08:31:00,
2013-03-21 04:41:00,22.7,17.7,29.52,SW,236,3.0,3.0,81,0.00,,,0.00,Wunderground v.1.15,2013-03-21 08:41:00,
2013-03-21 04:55:00,22.5,17.8,29.52,WSW,246,2.0,7.0,82,0.00,,,0.00,Wunderground v.1.15,2013-03-21 08:55:00,
2013-03-21 05:01:00,22.4,17.7,29.52,WSW,246,2.0,2.0,82,0.00,,,0.00,Wunderground v.1.15,2013-03-21 09:01:00,
2013-03-21 05:06:00,22.3,17.6,29.52,WSW,249,2.0,5.0,82,0.00,,,0.00,Wunderground v.1.15,2013-03-21 09:06:00,
2013-03-21 05:35:00,22.4,17.7,29.52,WSW,240,3.0,5.0,82,0.00,,,0.00,Wunderground v.1.15,2013-03-21 09:35:00,
2013-03-21 05:41:00,22.3,17.9,29.52,West,277,3.0,3.0,83,0.00,,,0.00,Wunderground v.1.15,2013-03-21 09:41:00,
2013-03-21 05:51:00,22.2,17.8,29.52,WSW,243,3.0,5.0,83,0.00,,,0.00,Wunderground v.1.15,2013-03-21 09:51:00,
2013-03-21 06:00:00,22.2,17.8,29.52,WSW,254,3.0,3.0,83,0.00,,,0.00,Wunderground v.1.15,2013-03-21 10:00:00,
2013-03-21 06:06:00,22.1,17.7,29.52,WSW,244,3.0,6.0,83,0.00,,,0.00,Wunderground v.1.15,2013-03-21 10:06:00,
2013-03-21 06:15:00,22.0,17.6,29.52,SSW,211,3.0,6.0,83,0.00,,,0.00,Wunderground v.1.15,2013-03-21 10:15:00,
2013-03-21 06:21:00,22.0,17.6,29.52,SW,220,3.0,3.0,83,0.00,,,0.00,Wunderground v.1.15,2013-03-21 10:21:00,
2013-03-21 06:30:00,22.0,17.6,29.52,SW,217,3.0,6.0,83,0.00,,,0.00,Wunderground v.1.15,2013-03-21 10:30:00,
2013-03-21 06:35:00,21.9,17.5,29.52,SW,216,3.0,6.0,83,0.00,,,0.00,Wunderground v.1.15,2013-03-21 10:35:00,
2013-03-21 06:46:00,21.8,17.4,29.52,SW,225,4.0,6.0,83,0.00,,,0.00,Wunderground v.1.15,2013-03-21 10:46:00,
2013-03-21 06:55:00,21.8,17.4,29.52,SW,225,5.0,6.0,83,0.00,,,0.00,Wunderground v.1.15,2013-03-21 10:55:00,
2013-03-21 07:06:00,21.7,17.3,29.52,SW,227,4.0,8.0,83,0.00,,,0.00,Wunderground v.1.15,2013-03-21 11:06:00,